Regional Weather Roundup
Issued by NWS

Home | Current Version | Previous Version | Graphics & Text | Print | Product List | Glossary On
Versions: 1 2 3 4 5 6 7 8 9 10 11 12 13 14 15 16 17 18 19 20 21 22 23 24 25 26 27 28 29 30 31 32 33 34 35 36 37 38 39 40 41 42 43 44 45 46 47 48 49 50
000
ASUS43 KIND 230509
RWRIN

WEATHER ROUNDUP FOR INDIANA
NATIONAL WEATHER SERVICE INDIANAPOLIS IN
1200 AM EST FRI FEB 23 2018

NOTE: "FAIR" INDICATES FEW OR NO CLOUDS BELOW 12,000 FEET WITH NO
SIGNIFICANT WEATHER AND/OR OBSTRUCTIONS TO VISIBILITY.

* - STATION DOES NOT REPORT WEATHER SUCH AS PRECIPITATION OR FOG.

+ - STATION NOT QUALITY CONTROLLED BY THE NATIONAL WEATHER SERVICE.
    USE DATA WITH CAUTION...ESPECIALLY DEWPOINT AND RELATIVE
    HUMIDITY OBSERVATIONS.

INZ001>003-010>013-019-020-230600-
NORTHWEST INDIANA

CITY           SKY/WX    TMP DP  RH WIND       PRES   REMARKS
GARY /AIRPORT/ CLOUDY    41  37  85 SE9G20    30.32S
LA PORTE +     CLOUDY    37  34  90 SE8G20    30.36R WCI  30
MICHIGAN CITY+ CLOUDY    37  34  87 SE8       30.35S WCI  31
MONTICELLO +   CLOUDY    38  37  94 SE9       30.31F WCI  32
RENSSELAER +   CLOUDY    39  36  87 SE13      30.31S FOG     WCI  32
VALPARAISO     CLOUDY    40  37  89 E7        30.35R WCI  35

$$

LMZ046-743>745-230600-
SOUTHERN LAKE MICHIGAN

STATION/POSITION TIME  TEMP    WIND        PRES    WAVE
                       AIR SEA DIR/SP/G            HT
                 (UTC) (F)     (DEG/KT/KT) (MB)    (FT)
BURNS HARBOR     0440   39     120/  9/ 14 1027.8R
MICHIGAN CITY    0440   38      90/ 10/ 14   N/A

$$

INZ004-005-014>016-021>024-230600-
NORTH CENTRAL INDIANA

CITY           SKY/WX    TMP DP  RH WIND       PRES   REMARKS
GOSHEN         CLOUDY    36  32  85 E13       30.33F WCI  27
LOGANSPORT +   CLOUDY    36  36 100 E13       30.34S FOG     WCI  27
PERU/GRISSOM   CLOUDY    36  36 100 E13       30.32F FOG     WCI  27
ROCHESTER +    CLOUDY    37  36  93 E10G23    30.33S WCI  30
SOUTH BEND     CLOUDY    36  33  89 E17G24    30.35R WCI  26
WARSAW +       CLOUDY    34  34 100 N21       30.33F WCI  22

$$

INZ006>009-017-018-025>027-230600-
NORTHEAST INDIANA

CITY           SKY/WX    TMP DP  RH WIND       PRES   REMARKS
AUBURN +       CLOUDY    34  34 100 E13       30.37F FOG     WCI  25
FORT WAYNE     DRIZZLE   35  34  96 E13       30.36F FOG     WCI  26
HUNTINGTON +   CLOUDY    34  33  95 E9        30.35F FOG     WCI  26
KENDALLVILLE + CLOUDY    33  32  96 E13G18    30.35F WCI  24

$$

INZ028-029-035-036-043>045-051>053-230600-
WEST CENTRAL INDIANA

CITY           SKY/WX    TMP DP  RH WIND       PRES   REMARKS
CRAWFORDSVL +  CLOUDY    41  41 100 SE9       30.33R FOG
GREENCASTLE +  CLOUDY    43  41  93 E6        30.32F FOG
LAFAYETTE      CLOUDY    41  41 100 SE7       30.32S FOG
TERRE HAUTE    CLOUDY    44  44 100 SE6       30.33S FOG

$$

INZ030>032-037>040-046>048-054>057-064-065-230600-
CENTRAL INDIANA

CITY           SKY/WX    TMP DP  RH WIND       PRES   REMARKS
FISHERS *+     CLOUDY    41  41 100 SE6       30.34F
GREENWOOD *+   CLOUDY    42 -47   1 SE5       30.35F
INDIANAPOLIS   DRIZZLE   44  43  96 E7        30.33F FOG
-EAGLE CREEK   CLOUDY    44  42  93 SE5       30.33F FOG
KOKOMO +       CLOUDY    36  36 100 E12       30.34S FOG     WCI  28
MARION +       CLOUDY    35  34  99 E9        30.35F FOG     WCI  27
MT COMFORT *+  CLOUDY    43  43 100 SE5       30.34S
SHELBYVILLE    CLOUDY    44  42  93 E5        30.33F FOG
ZIONSVILLE +   CLOUDY    42  42 100 SE7       30.34S FOG

$$

INZ033-034-041-042-049-050-058-059-230600-
EAST CENTRAL INDIANA

CITY           SKY/WX    TMP DP  RH WIND       PRES   REMARKS
MUNCIE         CLOUDY    41  39  93 E9        30.34F FOG
RICHMOND +     CLOUDY    41  41 100 SE10      30.35F FOG

$$

INZ060-061-067>069-081>083-085>088-230600-
SOUTHWEST INDIANA

CITY           SKY/WX    TMP DP  RH WIND       PRES   REMARKS
EVANSVILLE     FOG       49  49 100 E5        30.31F VSB 1/2
HUNTINGBURG +  FOG       48  48 100 E5        30.31F VSB 1/2
WASHINGTON +   FOG       46  44  94 S5        30.34R VSB 1/2

$$

INZ062-063-066-070>080-084-089>092-230600-
SOUTH CENTRAL AND SOUTHEAST INDIANA

CITY           SKY/WX    TMP DP  RH WIND       PRES   REMARKS
BATESVILLE +   FOG       43  43 100 MISG      30.35S VSB 3/4
BEDFORD +      FOG       45  43  93 E3        30.32F VSB 1/2
BLOOMINGTON    FOG       44  44 100 SE5       30.32F VSB 3/4
FRENCH LICK *+ CLOUDY    45 N/A N/A E6        30.32F VSB 1/2
MADISON *+     CLOUDY    45  45 100 E3        30.36R
NORTH VERNON + CLOUDY    43  43 100 CALM      30.35S FOG
SEYMOUR +      CLOUDY    46  46 100 CALM      30.34F FOG

$$




USA.gov is the U.S. government's official web portal to all federal, state and local government web resources and services.